Sparta, TN

2:33 AM CST on December 11, 2019 (GMT -0600)
Upper Cumberland Regional

Weather History for KSRB - October, 2019

Change the Weather History Date:

Wednesday, October 9, 2019

  Actual Average (KCSV) Record (KCSV)
Temperature  
Mean Temperature 63 °F -  
Max Temperature 78 °F 67 °F 83 °F (1980)
Min Temperature 48 °F 46 °F 29 °F (2000)
Degree Days  
Heating Degree Days 2    
Growing Degree Days 13 (Base 50)    
Moisture  
Dew Point 55 °F    
Average Humidity 82    
Maximum Humidity 100    
Minimum Humidity 44    
Precipitation  
Precipitation 0.00 in - - ()
Sea Level Pressure  
Sea Level Pressure 30.09 in    
Wind  
Wind Speed 1 mph ()    
Max Wind Speed 8 mph    
Max Gust Speed 13 mph    
Visibility 7.4 miles    
Events Fog    
Averages and records for this station are not official NWS values.
T = Trace of Precipitation, MM = Missing Value Source: Averaged Metar Reports

Daily Weather History Graph

Daily Weather History Graph

Search for Another Location

Airport or City:

Astronomy

Oct. 09, 2019 Rise Set
Actual Time 6:43 AM CDT 6:14 PM CDT
Civil Twilight 6:17 AM CDT 6:40 PM CDT
Nautical Twilight 5:48 AM CDT 7:09 PM CDT
Astronomical Twilight 5:18 AM CDT 7:39 PM CDT
Moon 4:36 PM CDT (10/9) 2:40 AM CDT (10/9)
Length of Visible Light 12h 22m
Length of Day
11h 31m
Waxing Gibbous, 85% of the Moon is Illuminated
Oct 9
Waxing Gibbous
Oct 13
Full
Oct 21
Last Quarter
Oct 27
New
Nov 4
First Quarter

Hourly Weather History & Observations

Time (CDT) Temp. Dew Point Humidity Pressure Visibility Wind Dir Wind Speed Gust Speed Precip Events Conditions
12:15 AM 50.0 °F 50.0 °F 100% 30.09 in 0.2 mi Calm Calm - N/A Fog Fog
12:35 AM 50.0 °F 50.0 °F 100% 30.08 in 0.2 mi Calm Calm - N/A Fog Fog
12:55 AM 50.0 °F 50.0 °F 100% 30.08 in 0.2 mi Calm Calm - N/A Fog Fog
1:15 AM 50.0 °F 48.2 °F 94% 30.08 in 0.2 mi Calm Calm - N/A Fog Fog
1:35 AM 50.0 °F 50.0 °F 100% 30.08 in 1.0 mi Calm Calm - N/A   Clear
1:55 AM 50.0 °F 48.2 °F 94% 30.08 in 0.5 mi Calm Calm - N/A Fog Fog
2:15 AM 50.0 °F 50.0 °F 100% 30.08 in 1.8 mi Calm Calm - N/A   Clear
2:35 AM 48.2 °F 48.2 °F 100% 30.07 in 0.8 mi Calm Calm - N/A   Mist
2:55 AM 48.2 °F 48.2 °F 100% 30.07 in 0.5 mi Calm Calm - N/A   Mist
3:15 AM 51.8 °F 51.8 °F 100% 30.08 in 0.8 mi Calm Calm - N/A   Mostly Cloudy
3:35 AM 50.0 °F 50.0 °F 100% 30.08 in 0.8 mi Calm Calm - N/A   Mostly Cloudy
3:55 AM 48.2 °F 48.2 °F 100% 30.08 in 0.8 mi Calm Calm - N/A   Mist
4:15 AM 48.2 °F 48.2 °F 100% 30.08 in 1.2 mi Calm Calm - N/A   Mostly Cloudy
4:35 AM 48.2 °F 48.2 °F 100% 30.09 in 0.5 mi Calm Calm - N/A Fog Fog
4:55 AM 48.2 °F 48.2 °F 100% 30.09 in 0.2 mi Calm Calm - N/A Fog Fog
5:15 AM 50.0 °F 48.2 °F 94% 30.10 in 1.2 mi Calm Calm - N/A   Mostly Cloudy
5:35 AM 50.0 °F 48.2 °F 94% 30.10 in 1.0 mi Calm Calm - N/A   Clear
5:55 AM 48.2 °F 48.2 °F 100% 30.10 in 9.0 mi Calm Calm - N/A   Clear
6:15 AM 48.2 °F 48.2 °F 100% 30.11 in 9.0 mi Calm Calm - N/A   Clear
6:35 AM 48.2 °F 48.2 °F 100% 30.11 in 1.5 mi Calm Calm - N/A   Clear
6:55 AM 48.2 °F 48.2 °F 100% 30.12 in 7.0 mi Calm Calm - N/A   Partly Cloudy
7:15 AM 50.0 °F 50.0 °F 100% 30.12 in 9.0 mi Calm Calm - N/A   Mostly Cloudy
7:35 AM 51.8 °F 51.8 °F 100% 30.13 in 9.0 mi Calm Calm - N/A   Overcast
7:55 AM 53.6 °F 53.6 °F 100% 30.14 in 10.0 mi Calm Calm - N/A   Overcast
8:15 AM 55.4 °F 55.4 °F 100% 30.14 in 10.0 mi Calm Calm - N/A   Overcast
8:20 AM 57.2 °F 55.4 °F 94% 30.14 in 10.0 mi Calm Calm - N/A   Overcast
10:15 AM 66.2 °F 62.6 °F 88% 30.15 in 10.0 mi Variable 5.8 mph 12.7 mph N/A   Overcast
10:35 AM 69.8 °F 62.6 °F 78% 30.15 in 10.0 mi SE 5.8 mph - N/A   Overcast
10:55 AM 69.8 °F 62.6 °F 78% 30.15 in 10.0 mi South 4.6 mph - N/A   Overcast
11:15 AM 71.6 °F 62.6 °F 73% 30.14 in 10.0 mi SSE 6.9 mph - N/A   Mostly Cloudy
11:35 AM 71.6 °F 62.6 °F 73% 30.14 in 10.0 mi Variable 4.6 mph - N/A   Scattered Clouds
11:55 AM 73.4 °F 62.6 °F 69% 30.13 in 10.0 mi Variable 4.6 mph - N/A   Scattered Clouds
12:15 PM 75.2 °F 62.6 °F 65% 30.13 in 10.0 mi South 3.5 mph - N/A   Scattered Clouds
12:35 PM 77.0 °F 62.6 °F 61% 30.12 in 10.0 mi SSW 8.1 mph - N/A   Mostly Cloudy
12:55 PM 77.0 °F 60.8 °F 57% 30.11 in 10.0 mi Variable 5.8 mph - N/A   Partly Cloudy
1:15 PM 77.0 °F 60.8 °F 57% 30.10 in 10.0 mi Calm Calm - N/A   Scattered Clouds
1:35 PM 78.8 °F 59.0 °F 51% 30.09 in 10.0 mi Variable 4.6 mph - N/A   Partly Cloudy
1:55 PM 78.8 °F 59.0 °F 51% 30.09 in 10.0 mi Calm Calm - N/A   Mostly Cloudy
2:15 PM 77.0 °F 55.4 °F 47% 30.08 in 10.0 mi ESE 4.6 mph - N/A   Mostly Cloudy
2:35 PM 77.0 °F 55.4 °F 47% 30.08 in 10.0 mi Calm Calm - N/A   Mostly Cloudy
2:55 PM 78.8 °F 57.2 °F 47% 30.07 in 10.0 mi Calm Calm - N/A   Mostly Cloudy
3:15 PM 78.8 °F 55.4 °F 44% 30.06 in 10.0 mi Calm Calm - N/A   Scattered Clouds
3:35 PM 77.0 °F 55.4 °F 47% 30.06 in 10.0 mi Calm Calm - N/A   Scattered Clouds
3:55 PM 78.8 °F 55.4 °F 44% 30.05 in 10.0 mi East 4.6 mph - N/A   Partly Cloudy
4:15 PM 77.0 °F 55.4 °F 47% 30.05 in 9.0 mi SSW 4.6 mph - N/A   Mostly Cloudy
4:35 PM 78.8 °F 55.4 °F 44% 30.05 in 9.0 mi Calm Calm - N/A   Scattered Clouds
4:55 PM 78.8 °F 57.2 °F 47% 30.05 in 10.0 mi SE 3.5 mph - N/A   Partly Cloudy
5:15 PM 77.0 °F 57.2 °F 50% 30.05 in 10.0 mi Calm Calm - N/A   Partly Cloudy
5:35 PM 77.0 °F 57.2 °F 50% 30.05 in 10.0 mi Calm Calm - N/A   Scattered Clouds
5:55 PM 73.4 °F 57.2 °F 57% 30.05 in 10.0 mi ESE 3.5 mph - N/A   Partly Cloudy
6:15 PM 69.8 °F 59.0 °F 68% 30.06 in 10.0 mi Calm Calm - N/A   Clear
6:35 PM 64.4 °F 57.2 °F 77% 30.06 in 10.0 mi Calm Calm - N/A   Clear
6:55 PM 64.4 °F 59.0 °F 83% 30.06 in 10.0 mi Calm Calm - N/A   Clear
7:15 PM 60.8 °F 57.2 °F 88% 30.07 in 10.0 mi Calm Calm - N/A   Clear
7:35 PM 60.8 °F 57.2 °F 88% 30.08 in 10.0 mi Calm Calm - N/A   Clear
7:55 PM 59.0 °F 57.2 °F 94% 30.08 in 10.0 mi Calm Calm - N/A   Partly Cloudy
8:15 PM 59.0 °F 57.2 °F 94% 30.09 in 10.0 mi Calm Calm - N/A   Mostly Cloudy
8:35 PM 59.0 °F 57.2 °F 94% 30.09 in 10.0 mi ENE 3.5 mph - N/A   Partly Cloudy
8:55 PM 59.0 °F 57.2 °F 94% 30.10 in 10.0 mi Calm Calm - N/A   Clear
9:15 PM 57.2 °F 57.2 °F 100% 30.10 in 10.0 mi Calm Calm - N/A   Clear
9:35 PM 57.2 °F 55.4 °F 94% 30.10 in 10.0 mi Calm Calm - N/A   Clear
9:55 PM 57.2 °F 55.4 °F 94% 30.11 in 10.0 mi Calm Calm - N/A   Clear
10:15 PM 57.2 °F 55.4 °F 94% 30.11 in 10.0 mi Calm Calm - N/A   Clear
10:35 PM 57.2 °F 55.4 °F 94% 30.12 in 10.0 mi Calm Calm - N/A   Clear
10:55 PM 55.4 °F 55.4 °F 100% 30.12 in 7.0 mi Calm Calm - N/A   Mostly Cloudy
11:15 PM 57.2 °F 55.4 °F 94% 30.12 in 10.0 mi ESE 4.6 mph - N/A   Overcast
11:35 PM 59.0 °F 57.2 °F 94% 30.11 in 10.0 mi Calm Calm - N/A   Mostly Cloudy
11:55 PM 57.2 °F 55.4 °F 94% 30.11 in 10.0 mi East 6.9 mph - N/A   Clear